QPF
0.01 0.01 0.01 0.01 0.02 0.02 0.02 0.03 0.03 0.02 0.02 0.01 0.01 0.00 0.00 0.00 0.00 0.01 0.01 0.01 0.01 0.01 0.01 0.01 0.01 0.01 0.01 0.01 0.01 0.01 0.01 0.01 0.01 0.02 0.02 0.03 0.06 0.05
0.01 0.01 0.01 0.02 0.02 0.02 0.02 0.02 0.03 0.02 0.02 0.02 0.02 0.01 0.01 0.00 0.00 0.00 0.00 0.00 0.00 0.00 0.00 0.00 0.00 0.00 0.01 0.01 0.01 0.01 0.01 0.01 0.01 0.01 0.02 0.03 0.04 0.05
0.02 0.02 0.01 0.01 0.02 0.02 0.02 0.02 0.02 0.02 0.01 0.01 0.02 0.01 0.01 0.01 0.01 0.00 0.00 0.00 0.00 0.00 0.00 0.00 0.00 0.00 0.00 0.00 0.00 0.00 0.00 0.01 0.01 0.01 0.01 0.02 0.02 0.02
0.01 0.01 0.01 0.01 0.01 0.02 0.02 0.01 0.01 0.02 0.02 0.02 0.02 0.02 0.02 0.02 0.02 0.01 0.01 0.00 0.00 0.00 0.00 0.00 0.00 0.00 0.00 0.01 0.01 0.01 0.00 0.00 0.01 0.01 0.01 0.01 0.01 0.01
0.01 0.01 0.01 0.01 0.01 0.02 0.02 0.01 0.01 0.01 0.02 0.03 0.03 0.03 0.03 0.03 0.02 0.01 0.00 0.00 0.00 0.00 0.00 0.00 0.00 0.00 0.00 0.00 0.01 0.01 0.01 0.01 0.01 0.01 0.01 0.01 0.01 0.01
0.01 0.01 0.01 0.02 0.01 0.01 0.01 0.01 0.02 0.02 0.02 0.03 0.03 0.03 0.03 0.02 0.01 0.01 0.01 0.00 0.00 0.00 0.00 0.00 0.00 0.00 0.00 0.00 0.00 0.00 0.00 0.00 0.00 0.00 0.01 0.01 0.01 0.01
0.01 0.01 0.01 0.01 0.02 0.01 0.01 0.01 0.02 0.02 0.02 0.02 0.02 0.02 0.02 0.02 0.01 0.00 0.00 0.01 0.00 0.00 0.00 0.00 0.00 0.00 0.00 0.00 0.00 0.00 0.00 0.00 0.00 0.00 0.00 0.00 0.01 0.01
0.01 0.01 0.01 0.01 0.02 0.01 0.01 0.01 0.01 0.02 0.02 0.02 0.02 0.02 0.02 0.02 0.02 0.01 0.00 0.00 0.00 0.00 0.00 0.00 0.00 0.00 0.00 0.00 0.00 0.00 0.00 0.00 0.00 0.00 0.00 0.01 0.01 0.01
0.01 0.01 0.01 0.01 0.02 0.01 0.02 0.02 0.02 0.02 0.02 0.02 0.02 0.01 0.01 0.02 0.03 0.03 0.01 0.01 0.01 0.00 0.00 0.00 0.00 0.00 0.00 0.00 0.00 0.00 0.00 0.00 0.00 0.00 0.00 0.01 0.01 0.01
0.00 0.01 0.01 0.02 0.03 0.02 0.02 0.01 0.02 0.02 0.02 0.02 0.02 0.02 0.01 0.02 0.03 0.04 0.02 0.01 0.01 0.00 0.00 0.00 0.00 0.00 0.00 0.00 0.00 0.00 0.00 0.00 0.00 0.00 0.00 0.01 0.01 0.01
0.01 0.01 0.01 0.01 0.01 0.01 0.01 0.01 0.01 0.02 0.02 0.02 0.02 0.02 0.02 0.02 0.02 0.04 0.04 0.02 0.02 0.01 0.01 0.00 0.00 0.00 0.00 0.00 0.00 0.00 0.00 0.00 0.00 0.00 0.00 0.01 0.01 0.01
0.01 0.00 0.00 0.01 0.01 0.01 0.00 0.00 0.01 0.02 0.02 0.02 0.02 0.02 0.02 0.02 0.02 0.02 0.04 0.04 0.03 0.02 0.01 0.01 0.00 0.00 0.00 0.00 0.00 0.00 0.00 0.00 0.00 0.00 0.00 0.01 0.01 0.01
0.00 0.00 0.00 0.00 0.01 0.01 0.01 0.01 0.01 0.01 0.01 0.01 0.01 0.01 0.02 0.01 0.01 0.01 0.03 0.05 0.05 0.02 0.01 0.01 0.01 0.00 0.00 0.00 0.00 0.00 0.00 0.00 0.00 0.00 0.00 0.01 0.01 0.01
0.01 0.01 0.01 0.01 0.01 0.01 0.01 0.01 0.01 0.01 0.01 0.01 0.01 0.01 0.01 0.02 0.02 0.02 0.02 0.03 0.04 0.03 0.01 0.01 0.01 0.01 0.01 0.00 0.00 0.00 0.00 0.00 0.00 0.00 0.00 0.01 0.01 0.02
0.01 0.01 0.02 0.02 0.02 0.01 0.01 0.01 0.01 0.00 0.01 0.01 0.01 0.01 0.02 0.03 0.03 0.03 0.02 0.02 0.02 0.02 0.02 0.01 0.01 0.01 0.01 0.00 0.00 0.00 0.00 0.00 0.00 0.00 0.00 0.01 0.01 0.02
0.01 0.01 0.02 0.02 0.02 0.01 0.00 0.00 0.00 0.00 0.00 0.00 0.01 0.01 0.03 0.04 0.05 0.05 0.03 0.02 0.03 0.03 0.02 0.02 0.02 0.01 0.01 0.01 0.00 0.00 0.00 0.00 0.00 0.00 0.01 0.01 0.01 0.02
0.01 0.01 0.01 0.02 0.01 0.01 0.00 0.00 0.00 0.00 0.00 0.00 0.00 0.01 0.04 0.05 0.05 0.06 0.06 0.04 0.03 0.02 0.02 0.02 0.02 0.01 0.01 0.01 0.01 0.00 0.00 0.00 0.00 0.00 0.01 0.01 0.01 0.02
0.02 0.01 0.01 0.01 0.01 0.01 0.01 0.01 0.00 0.00 0.00 0.01 0.01 0.02 0.05 0.05 0.04 0.05 0.07 0.06 0.05 0.04 0.03 0.02 0.02 0.01 0.01 0.01 0.00 0.00 0.00 0.00 0.00 0.00 0.01 0.01 0.01 0.01
0.01 0.01 0.01 0.01 0.01 0.01 0.01 0.01 0.01 0.01 0.01 0.01 0.03 0.04 0.05 0.05 0.04 0.04 0.06 0.06 0.06 0.05 0.04 0.03 0.02 0.02 0.02 0.01 0.00 0.00 0.00 0.00 0.01 0.01 0.01 0.01 0.01 0.01
0.01 0.01 0.01 0.01 0.01 0.01 0.01 0.01 0.02 0.01 0.01 0.02 0.03 0.04 0.04 0.05 0.04 0.04 0.05 0.05 0.04 0.04 0.03 0.03 0.02 0.02 0.02 0.02 0.01 0.01 0.01 0.01 0.01 0.01 0.01 0.01 0.01 0.02
0.01 0.01 0.01 0.01 0.01 0.01 0.01 0.01 0.01 0.01 0.02 0.02 0.02 0.03 0.03 0.03 0.03 0.03 0.03 0.04 0.03 0.02 0.02 0.01 0.01 0.02 0.02 0.02 0.01 0.00 0.00 0.01 0.01 0.02 0.02 0.03 0.03 0.02
0.01 0.01 0.01 0.02 0.01 0.02 0.02 0.01 0.01 0.01 0.02 0.02 0.02 0.02 0.03 0.03 0.03 0.03 0.03 0.03 0.02 0.02 0.01 0.01 0.01 0.01 0.01 0.01 0.01 0.01 0.00 0.01 0.01 0.02 0.02 0.03 0.03 0.03
0.00 0.01 0.02 0.02 0.01 0.01 0.01 0.01 0.01 0.01 0.01 0.01 0.02 0.02 0.03 0.03 0.04 0.04 0.03 0.02 0.02 0.02 0.02 0.02 0.02 0.02 0.01 0.01 0.01 0.01 0.01 0.01 0.01 0.01 0.02 0.02 0.02 0.02
MSLP
1014.47 1014.51 1014.56 1014.63 1014.68 1014.69 1014.66 1014.56 1014.41 1014.21 1014.00 1013.81 1013.67 1013.59 1013.59 1013.65 1013.77 1013.90 1014.03 1014.13 1014.19 1014.21 1014.20 1014.18 1014.17 1014.19 1014.25 1014.34 1014.44 1014.54 1014.60 1014.60 1014.52 1014.35 1014.09 1013.77 1013.39 1012.99
1013.95 1013.98 1014.02 1014.06 1014.09 1014.09 1014.04 1013.96 1013.83 1013.68 1013.52 1013.38 1013.28 1013.24 1013.26 1013.33 1013.45 1013.60 1013.74 1013.86 1013.95 1014.01 1014.05 1014.07 1014.09 1014.12 1014.18 1014.26 1014.36 1014.46 1014.54 1014.59 1014.59 1014.53 1014.40 1014.21 1013.95 1013.65
1013.34 1013.35 1013.36 1013.38 1013.38 1013.37 1013.33 1013.26 1013.17 1013.06 1012.97 1012.89 1012.85 1012.86 1012.91 1013.01 1013.14 1013.29 1013.44 1013.58 1013.70 1013.79 1013.85 1013.91 1013.95 1014.00 1014.05 1014.12 1014.20 1014.30 1014.39 1014.48 1014.54 1014.58 1014.57 1014.52 1014.40 1014.22
1012.68 1012.66 1012.65 1012.63 1012.61 1012.58 1012.54 1012.49 1012.43 1012.38 1012.35 1012.33 1012.35 1012.41 1012.50 1012.63 1012.77 1012.93 1013.09 1013.24 1013.38 1013.50 1013.60 1013.68 1013.75 1013.80 1013.86 1013.92 1013.99 1014.07 1014.16 1014.27 1014.39 1014.51 1014.60 1014.67 1014.69 1014.65
1012.04 1011.99 1011.93 1011.88 1011.83 1011.78 1011.72 1011.68 1011.65 1011.64 1011.65 1011.69 1011.76 1011.86 1011.99 1012.13 1012.29 1012.46 1012.63 1012.80 1012.96 1013.10 1013.23 1013.34 1013.44 1013.51 1013.58 1013.63 1013.69 1013.77 1013.86 1013.98 1014.13 1014.30 1014.48 1014.66 1014.79 1014.88
1011.48 1011.38 1011.28 1011.18 1011.09 1011.01 1010.93 1010.88 1010.84 1010.85 1010.88 1010.95 1011.05 1011.18 1011.33 1011.49 1011.65 1011.83 1012.01 1012.19 1012.37 1012.54 1012.71 1012.85 1012.98 1013.09 1013.17 1013.23 1013.29 1013.36 1013.46 1013.59 1013.76 1013.97 1014.21 1014.46 1014.70 1014.89
1011.02 1010.87 1010.73 1010.58 1010.44 1010.31 1010.20 1010.11 1010.05 1010.03 1010.06 1010.12 1010.22 1010.35 1010.50 1010.66 1010.83 1011.01 1011.19 1011.39 1011.59 1011.79 1011.99 1012.17 1012.34 1012.48 1012.59 1012.68 1012.76 1012.83 1012.93 1013.07 1013.26 1013.49 1013.77 1014.08 1014.39 1014.67
1010.69 1010.49 1010.30 1010.10 1009.91 1009.72 1009.55 1009.40 1009.29 1009.23 1009.21 1009.23 1009.30 1009.40 1009.52 1009.66 1009.82 1009.99 1010.18 1010.38 1010.60 1010.83 1011.06 1011.29 1011.50 1011.68 1011.83 1011.95 1012.05 1012.15 1012.27 1012.42 1012.62 1012.88 1013.19 1013.54 1013.90 1014.25
1010.46 1010.23 1009.99 1009.74 1009.49 1009.24 1009.01 1008.79 1008.60 1008.46 1008.36 1008.32 1008.32 1008.36 1008.44 1008.54 1008.67 1008.83 1009.01 1009.22 1009.45 1009.69 1009.95 1010.21 1010.46 1010.68 1010.87 1011.03 1011.17 1011.31 1011.45 1011.63 1011.86 1012.14 1012.48 1012.86 1013.26 1013.66
1010.33 1010.06 1009.78 1009.49 1009.19 1008.88 1008.57 1008.27 1008.00 1007.76 1007.57 1007.43 1007.35 1007.31 1007.32 1007.37 1007.46 1007.58 1007.75 1007.94 1008.17 1008.43 1008.70 1008.98 1009.26 1009.51 1009.74 1009.95 1010.13 1010.31 1010.50 1010.72 1010.98 1011.30 1011.66 1012.08 1012.51 1012.95
1010.26 1009.95 1009.64 1009.32 1008.97 1008.60 1008.23 1007.85 1007.49 1007.15 1006.86 1006.62 1006.43 1006.31 1006.23 1006.21 1006.25 1006.33 1006.46 1006.63 1006.84 1007.10 1007.37 1007.66 1007.95 1008.24 1008.50 1008.75 1008.98 1009.21 1009.45 1009.72 1010.02 1010.38 1010.78 1011.23 1011.70 1012.18
1010.23 1009.89 1009.55 1009.20 1008.81 1008.40 1007.97 1007.52 1007.07 1006.64 1006.25 1005.91 1005.62 1005.39 1005.23 1005.13 1005.10 1005.12 1005.20 1005.33 1005.52 1005.75 1006.01 1006.30 1006.59 1006.89 1007.19 1007.47 1007.75 1008.03 1008.33 1008.65 1009.01 1009.42 1009.87 1010.35 1010.86 1011.37
1010.23 1009.87 1009.50 1009.11 1008.70 1008.25 1007.76 1007.25 1006.74 1006.23 1005.75 1005.30 1004.92 1004.60 1004.34 1004.16 1004.04 1003.99 1004.01 1004.09 1004.23 1004.42 1004.65 1004.92 1005.21 1005.52 1005.83 1006.15 1006.48 1006.81 1007.17 1007.55 1007.97 1008.42 1008.91 1009.43 1009.97 1010.51
1010.28 1009.88 1009.48 1009.07 1008.62 1008.13 1007.61 1007.05 1006.48 1005.90 1005.34 1004.82 1004.34 1003.92 1003.57 1003.29 1003.09 1002.95 1002.89 1002.90 1002.97 1003.11 1003.30 1003.54 1003.82 1004.13 1004.46 1004.81 1005.18 1005.57 1005.98 1006.41 1006.88 1007.38 1007.91 1008.45 1009.01 1009.57
1010.37 1009.94 1009.51 1009.06 1008.58 1008.06 1007.50 1006.91 1006.28 1005.65 1005.03 1004.43 1003.87 1003.36 1002.92 1002.53 1002.23 1002.00 1001.84 1001.76 1001.75 1001.82 1001.96 1002.16 1002.41 1002.72 1003.06 1003.44 1003.84 1004.27 1004.73 1005.21 1005.72 1006.25 1006.80 1007.37 1007.93 1008.49
1010.53 1010.05 1009.58 1009.10 1008.59 1008.04 1007.44 1006.82 1006.16 1005.48 1004.80 1004.14 1003.50 1002.90 1002.36 1001.87 1001.46 1001.11 1000.84 1000.66 1000.56 1000.54 1000.61 1000.76 1000.98 1001.27 1001.62 1002.01 1002.45 1002.91 1003.41 1003.92 1004.46 1005.00 1005.56 1006.12 1006.68 1007.22
1010.75 1010.24 1009.73 1009.21 1008.65 1008.07 1007.45 1006.79 1006.09 1005.38 1004.65 1003.93 1003.22 1002.54 1001.89 1001.30 1000.77 1000.30 999.91 999.60 999.40 999.28 999.27 999.35 999.53 999.79 1000.13 1000.53 1000.97 1001.46 1001.98 1002.51 1003.05 1003.60 1004.15 1004.69 1005.22 1005.74
1011.05 1010.50 1009.95 1009.38 1008.79 1008.17 1007.51 1006.82 1006.09 1005.34 1004.57 1003.79 1003.01 1002.25 1001.51 1000.81 1000.15 999.56 999.04 998.62 998.29 998.07 997.96 997.97 998.09 998.30 998.61 999.00 999.45 999.93 1000.45 1000.98 1001.52 1002.05 1002.57 1003.08 1003.58 1004.06
1011.42 1010.83 1010.24 1009.63 1008.99 1008.33 1007.63 1006.90 1006.13 1005.34 1004.52 1003.69 1002.85 1002.01 1001.18 1000.38 999.61 998.91 998.27 997.71 997.27 996.94 996.73 996.65 996.70 996.86 997.13 997.48 997.90 998.37 998.87 999.39 999.90 1000.40 1000.89 1001.37 1001.83 1002.27
1011.82 1011.21 1010.57 1009.92 1009.23 1008.51 1007.76 1006.98 1006.17 1005.33 1004.46 1003.58 1002.68 1001.77 1000.87 999.98 999.12 998.31 997.57 996.91 996.36 995.93 995.63 995.46 995.43 995.53 995.74 996.05 996.43 996.86 997.33 997.81 998.28 998.75 999.21 999.65 1000.07 1000.49
1012.24 1011.60 1010.93 1010.22 1009.47 1008.69 1007.87 1007.02 1006.15 1005.25 1004.32 1003.38 1002.42 1001.46 1000.49 999.54 998.62 997.74 996.92 996.19 995.56 995.05 994.68 994.44 994.34 994.37 994.52 994.77 995.10 995.48 995.90 996.34 996.78 997.21 997.62 998.03 998.43 998.83
1012.67 1011.99 1011.27 1010.49 1009.67 1008.80 1007.90 1006.96 1006.00 1005.02 1004.03 1003.02 1002.01 1000.99 999.99 998.99 998.03 997.12 996.26 995.50 994.83 994.28 993.87 993.59 993.44 993.42 993.52 993.71 993.99 994.32 994.68 995.07 995.46 995.86 996.24 996.62 997.00 997.39
1013.07 1012.35 1011.56 1010.70 1009.78 1008.81 1007.79 1006.74 1005.68 1004.60 1003.51 1002.43 1001.35 1000.29 999.25 998.25 997.28 996.36 995.52 994.77 994.11 993.57 993.16 992.87 992.70 992.66 992.72 992.87 993.10 993.38 993.70 994.04 994.39 994.75 995.10 995.46 995.83 996.20
Thickness
5664 5663 5661 5660 5658 5656 5653 5650 5643 5636 5633 5634 5634 5634 5634 5633 5632 5631 5630 5630 5629 5629 5629 5629 5629 5628 5629 5629 5630 5631 5632 5633 5634 5634 5635 5636 5637 5638
5660 5659 5658 5656 5655 5653 5651 5648 5645 5639 5633 5632 5631 5631 5630 5629 5628 5627 5626 5625 5625 5624 5624 5623 5622 5622 5622 5622 5623 5624 5625 5626 5627 5627 5628 5629 5630 5630
5657 5656 5654 5653 5651 5649 5647 5645 5642 5638 5633 5630 5629 5628 5626 5625 5624 5623 5622 5621 5620 5619 5619 5618 5617 5616 5616 5616 5617 5617 5618 5619 5619 5620 5621 5622 5622 5623
5654 5653 5651 5650 5647 5645 5644 5641 5639 5636 5633 5628 5625 5624 5622 5621 5619 5618 5617 5616 5615 5614 5613 5612 5611 5611 5610 5610 5611 5611 5611 5612 5612 5612 5613 5614 5614 5614
5651 5649 5648 5646 5643 5642 5640 5638 5635 5634 5630 5626 5622 5620 5618 5616 5614 5613 5612 5611 5610 5609 5608 5607 5606 5605 5605 5605 5604 5604 5604 5605 5605 5605 5605 5605 5605 5606
5648 5647 5645 5643 5641 5638 5637 5634 5632 5628 5625 5622 5618 5616 5614 5612 5610 5607 5606 5605 5604 5604 5603 5602 5601 5600 5599 5598 5598 5598 5597 5597 5597 5597 5597 5596 5596 5597
5643 5642 5641 5640 5639 5637 5634 5630 5628 5624 5620 5617 5614 5611 5609 5607 5605 5603 5601 5599 5598 5598 5597 5596 5595 5594 5593 5593 5592 5592 5591 5591 5590 5590 5589 5588 5588 5588
5638 5637 5636 5635 5634 5633 5631 5629 5626 5621 5617 5614 5611 5609 5607 5606 5603 5600 5596 5593 5592 5592 5591 5590 5589 5588 5588 5588 5587 5586 5586 5585 5584 5583 5582 5581 5580 5580
5633 5631 5631 5630 5628 5626 5624 5623 5621 5619 5618 5614 5610 5608 5606 5605 5601 5597 5594 5591 5589 5588 5585 5584 5583 5583 5583 5583 5582 5581 5580 5579 5578 5577 5576 5575 5574 5573
5629 5627 5624 5622 5621 5619 5617 5615 5614 5613 5613 5611 5610 5608 5606 5604 5601 5597 5593 5588 5585 5583 5582 5579 5578 5578 5579 5578 5577 5576 5575 5574 5572 5571 5569 5568 5568 5567
5623 5621 5619 5616 5616 5614 5610 5608 5607 5607 5607 5607 5606 5604 5602 5600 5597 5592 5587 5583 5580 5578 5577 5575 5573 5572 5572 5572 5572 5570 5569 5567 5566 5565 5563 5562 5561 5561
5616 5615 5614 5612 5610 5607 5604 5602 5600 5600 5601 5600 5599 5598 5597 5594 5592 5589 5586 5580 5576 5574 5574 5571 5569 5566 5565 5566 5566 5565 5563 5561 5559 5558 5557 5556 5555 5554
5610 5608 5607 5607 5605 5602 5600 5598 5597 5596 5595 5593 5592 5591 5590 5588 5586 5584 5582 5580 5576 5573 5573 5569 5565 5562 5560 5559 5559 5558 5557 5555 5554 5552 5551 5550 5549 5548
5605 5604 5602 5601 5599 5597 5594 5593 5592 5590 5588 5586 5584 5583 5583 5582 5581 5580 5578 5577 5575 5573 5571 5568 5564 5560 5557 5554 5552 5552 5551 5549 5548 5547 5546 5545 5544 5543
5601 5600 5598 5596 5593 5591 5590 5588 5586 5583 5581 5579 5578 5578 5578 5578 5577 5575 5573 5572 5570 5569 5567 5566 5563 5559 5556 5553 5550 5548 5545 5544 5543 5542 5541 5540 5538 5537
5595 5594 5592 5590 5587 5585 5584 5582 5580 5578 5576 5575 5575 5574 5573 5572 5571 5570 5567 5566 5564 5562 5562 5561 5560 5557 5552 5550 5547 5544 5542 5539 5538 5537 5535 5534 5533 5532
5589 5585 5583 5581 5579 5578 5577 5576 5574 5573 5572 5571 5570 5569 5568 5567 5566 5565 5562 5560 5558 5556 5555 5554 5553 5551 5549 5546 5542 5540 5538 5535 5534 5532 5530 5528 5528 5528
5583 5579 5577 5576 5575 5573 5572 5570 5569 5568 5568 5567 5566 5565 5564 5563 5561 5560 5557 5555 5553 5552 5550 5549 5547 5544 5542 5540 5539 5536 5534 5531 5530 5527 5525 5523 5523 5524
5578 5576 5574 5572 5570 5569 5567 5566 5565 5565 5564 5563 5563 5562 5560 5559 5557 5555 5553 5550 5549 5547 5545 5544 5541 5539 5536 5535 5534 5533 5530 5528 5525 5522 5521 5519 5519 5519
5573 5571 5570 5569 5567 5565 5564 5563 5562 5560 5559 5559 5558 5557 5556 5554 5552 5551 5549 5547 5545 5543 5540 5538 5536 5535 5533 5531 5529 5527 5526 5523 5521 5518 5516 5515 5514 5515
5569 5568 5566 5565 5563 5562 5560 5559 5558 5557 5556 5555 5554 5553 5552 5550 5548 5547 5545 5543 5541 5538 5537 5535 5534 5532 5529 5525 5522 5521 5521 5520 5518 5515 5513 5509 5508 5507
5567 5565 5563 5561 5560 5558 5557 5555 5554 5553 5552 5550 5550 5549 5547 5546 5544 5542 5540 5538 5536 5534 5533 5530 5528 5525 5522 5520 5518 5516 5515 5514 5513 5511 5510 5509 5505 5503
5564 5562 5560 5559 5557 5555 5553 5552 5551 5550 5548 5547 5546 5545 5543 5541 5539 5537 5535 5533 5531 5529 5526 5524 5521 5518 5516 5514 5512 5510 5509 5508 5506 5504 5504 5504 5502 5502